This demonstration page uses our WeatherBlox Daily Observations layout. Learn more.

Hourly Observations for February 13, 2018

Temp ( °F °C ) Dew Point ( °F °C ) Humidity (%) Winds ( mph kmh ) Pressure ( in mb ) Visibility ( mi km ) Precip ( " mm )
12:15 am 00:15 Clear 15 -9.5 12 -10.9 90 90 E 14 22 30.53 1034 10 16.0934 0 0
12:35 am 00:35 Clear 14 -9.8 12 -11.1 90 90 E 13 20 30.53 1034 10 16.0934 0 0
12:55 am 00:55 Clear 14 -10 12 -11.3 90 90 ESE 10 17 30.53 1034 10 16.0934 0 0
1:15 am 01:15 Clear 15 -9.6 12 -11 90 90 ESE 14 22 30.53 1034 10 16.0934 0 0
1:35 am 01:35 Clear 15 -9.3 13 -10.8 89 89 ESE 13 20 30.48 1032 10 16.0934 0 0
1:55 am 01:55 Clear 15 -9.2 13 -10.7 89 89 ESE 10 17 30.48 1032 10 16.0934 0 0
2:15 am 02:15 Clear 15 -9.2 13 -10.7 89 89 SE 13 20 30.48 1032 10 16.0934 0 0
2:35 am 02:35 Clear 16 -9.1 13 -10.5 90 90 SE 12 19 30.48 1032 10 16.0934 0 0
2:55 am 02:55 Clear 15 -9.5 13 -10.8 90 90 SE 10 17 30.48 1032 10 16.0934 0 0
3:15 am 03:15 Clear 15 -9.4 13 -10.5 92 92 SE 10 17 30.45 1031 10 16.0934 0 0
3:35 am 03:35 Clear 17 -8.6 14 -9.8 91 91 SE 10 17 30.45 1031 10 16.0934 0 0
3:55 am 03:55 Clear 17 -8.6 14 -9.9 90 90 SE 9 15 30.45 1031 10 16.0934 0 0
4:15 am 04:15 Clear 16 -8.8 14 -10 91 91 SE 9 15 30.42 1030 10 16.0934 0 0
4:35 am 04:35 Clear 17 -8.4 15 -9.5 92 92 SE 9 15 30.42 1030 10 16.0934 0 0
4:55 am 04:55 Clear 17 -8.3 15 -9.3 93 93 SE 10 17 30.42 1030 10 16.0934 0 0
5:15 am 05:15 Clear 20 -6.9 18 -8 92 92 SSE 12 19 30.39 1029 10 16.0934 0 0
5:35 am 05:35 Clear 20 -6.5 18 -7.6 92 92 SSE 12 19 30.39 1029 10 16.0934 0 0
5:55 am 05:55 Clear 20 -6.6 18 -7.8 91 91 SSE 8 13 30.39 1029 10 16.0934 0 0
6:15 am 06:15 Clear 20 -6.8 18 -7.9 92 92 SSE 9 15 30.39 1029 10 16.0934 0 0
6:35 am 06:35 Clear 21 -6.2 19 -7.4 91 91 SSE 9 15 30.36 1028 10 16.0934 0 0
6:55 am 06:55 Clear 21 -6.2 19 -7.5 91 91 SSE 6 9 30.39 1029 10 16.0934 0 0
7:15 am 07:15 Clear 20 -6.5 18 -7.6 92 92 S 10 17 30.39 1029 10 16.0934 0 0
7:35 am 07:35 Sunny 21 -6.2 19 -7.3 92 92 SSE 12 19 30.36 1028 10 16.0934 0 0
7:55 am 07:55 Sunny 21 -6 19 -7.1 92 92 S 13 20 30.36 1028 10 16.0934 0 0
8:15 am 08:15 Sunny 21 -6 19 -7 93 93 S 12 19 30.36 1028 10 16.0934 0 0
8:35 am 08:35 Sunny 22 -5.7 20 -6.7 93 93 S 12 19 30.36 1028 10 16.0934 0 0
8:55 am 08:55 Sunny 22 -5.6 20 -6.7 92 92 S 15 24 30.36 1028 10 16.0934 0 0
9:15 am 09:15 Sunny 23 -5.2 20 -6.5 91 91 S 12 19 30.36 1028 10 16.0934 0 0
9:35 am 09:35 Sunny 24 -4.6 21 -6.1 89 89 S 12 19 30.33 1027 10 16.0934 0 0
9:55 am 09:55 Sunny 25 -4 22 -5.8 87 87 S 7 11 30.33 1027 10 16.0934 0 0
10:15 am 10:15 Sunny 27 -2.7 22 -5.4 82 82 S 10 17 30.33 1027 10 16.0934 0 0
10:35 am 10:35 Sunny 29 -1.8 23 -5 79 79 SSW 14 22 30.33 1027 10 16.0934 0 0
10:55 am 10:55 Sunny 30 -0.9 24 -4.7 76 76 SSW 12 19 30.3 1026 10 16.0934 0 0
11:15 am 11:15 Sunny 31 -0.5 24 -4.5 75 75 SW 13 20 30.3 1026 10 16.0934 0 0
11:35 am 11:35 Sunny 32 -0.1 24 -4.2 74 74 SSW 13 20 30.27 1025 10 16.0934 0 0
11:55 am 11:55 Sunny 32 0 24 -4.3 73 73 SW 12 19 30.27 1025 10 16.0934 0 0
12:15 pm 12:15 Sunny 32 0.2 25 -4.1 73 73 SW 14 22 30.27 1025 10 16.0934 0 0
12:35 pm 12:35 Sunny 33 0.8 25 -3.8 72 72 SW 13 20 30.27 1025 10 16.0934 0 0
12:55 pm 12:55 Sunny 34 1.1 25 -4 69 69 SW 9 15 30.21 1023 10 16.0934 0 0
1:15 pm 13:15 Sunny 34 1.3 24 -4.5 66 66 SW 8 13 30.21 1023 10 16.0934 0 0
1:35 pm 13:35 Sunny 35 1.5 25 -4.1 67 67 WSW 8 13 30.21 1023 10 16.0934 0 0
1:55 pm 13:55 Sunny 35 1.7 25 -4.1 66 66 WSW 10 17 30.21 1023 10 16.0934 0 0
2:15 pm 14:15 Sunny 36 2 26 -3.6 67 67 SW 10 17 30.21 1023 10 16.0934 0 0
2:35 pm 14:35 Sunny 36 2.1 26 -3.6 66 66 SW 9 15 30.21 1023 10 16.0934 0 0
2:55 pm 14:55 Sunny 36 2.4 26 -3.2 67 67 SW 7 11 30.21 1023 10 16.0934 0 0
3:15 pm 15:15 Sunny 37 2.8 27 -2.9 66 66 SW 9 15 30.21 1023 10 16.0934 0 0
3:35 pm 15:35 Sunny 37 2.8 27 -2.8 67 67 SW 9 15 30.21 1023 10 16.0934 0 0
3:55 pm 15:55 Sunny 37 3 27 -2.6 67 67 SW 8 13 30.21 1023 10 16.0934 0 0
4:15 pm 16:15 Sunny 38 3.1 28 -2.5 67 67 SW 7 11 30.21 1023 10 16.0934 0 0
4:35 pm 16:35 Sunny 38 3.1 27 -2.9 65 65 SW 6 9 30.21 1023 10 16.0934 0 0
4:55 pm 16:55 Sunny 37 3 28 -2.4 68 68 SW 6 9 30.21 1023 10 16.0934 0 0
5:15 pm 17:15 Sunny 37 3 28 -2 70 70 SW 6 9 30.21 1023 10 16.0934 0 0
5:35 pm 17:35 Sunny 37 2.6 28 -2.1 71 71 SW 6 9 30.21 1023 10 16.0934 0 0
5:55 pm 17:55 Sunny 36 2.1 28 -2.2 73 73 SW 3 6 30.21 1023 10 16.0934 0 0
6:15 pm 18:15 Clear 34 1.3 27 -2.6 76 76 WSW 5 7 30.21 1023 10 16.0934 0 0
6:35 pm 18:35 Clear 34 1 27 -3 75 75 Calm 30.21 1023 10 16.0934 0 0
6:55 pm 18:55 Clear 31 -0.5 26 -3.5 80 80 Calm 30.24 1024 10 16.0934 0 0
7:15 pm 19:15 Clear 31 -0.5 26 -3.3 82 82 Calm 30.24 1024 10 16.0934 0 0
7:35 pm 19:35 Clear 32 0.1 26 -3.1 79 79 Calm 30.24 1024 10 16.0934 0 0
7:55 pm 19:55 Clear 30 -1 26 -3.6 83 83 Calm 30.24 1024 10 16.0934 0 0
8:15 pm 20:15 Clear 30 -1 26 -3.6 83 83 WSW 3 6 30.24 1024 10 16.0934 0 0
8:35 pm 20:35 Clear 31 -0.5 26 -3.5 80 80 Calm 30.24 1024 10 16.0934 0 0
8:55 pm 20:55 Clear 27 -2.6 24 -4.4 88 88 Calm 30.21 1023 10 16.0934 0 0
9:15 pm 21:15 Clear 28 -2.4 23 -4.9 83 83 WNW 3 6 30.21 1023 10 16.0934 0 0
9:35 pm 21:35 Clear 27 -3 23 -5 86 86 Calm 30.24 1024 10 16.0934 0 0
9:55 pm 21:55 Clear 28 -2 24 -4.5 83 83 Calm 30.21 1023 10 16.0934 0 0
10:15 pm 22:15 Clear 29 -1.6 24 -4.6 80 80 SW 3 6 30.21 1023 10 16.0934 0 0
10:35 pm 22:35 Clear 26 -3.2 23 -5.2 86 86 Calm 30.24 1024 10 16.0934 0 0
10:55 pm 22:55 Clear 25 -3.7 23 -5.1 90 90 S 5 7 30.24 1024 10 16.0934 0 0
11:15 pm 23:15 Clear 29 -1.8 24 -4.4 83 83 SSW 8 13 30.18 1022 10 16.0934 0 0
11:35 pm 23:35 Clear 26 -3.2 22 -5.7 83 83 Calm 30.21 1023 10 16.0934 0 0
11:55 pm 23:55 Clear 25 -4 21 -6.1 86 86 Calm 30.21 1023 10 16.0934 0 0

Powered by AerisWeather